Wind_Speed
9 9 10 11 11 12 13 14 15 16 16 16 16 16 16 16 17 18 18 18 18 19 19 19 19 19 19 19 19 20 20 20 19 20 20 21 21 21
10 10 11 11 12 13 14 15 16 17 17 17 16 16 17 17 17 18 18 18 18 19 19 20 20 19 19 18 19 19 19 19 19 20 20 20 21 22
11 11 12 13 13 14 16 16 17 18 18 18 17 17 18 17 17 18 18 19 19 20 20 20 20 19 19 19 19 19 19 19 19 19 20 21 21 22
12 12 13 14 15 16 17 17 18 19 18 18 18 18 18 18 18 19 19 19 20 20 20 20 20 20 20 20 20 20 20 20 20 20 21 22 22 22
14 14 15 15 16 17 18 19 19 19 19 19 19 19 19 19 19 19 20 20 21 21 21 21 20 20 20 20 20 21 21 21 21 21 21 22 22 23
15 16 17 17 18 19 19 20 21 20 20 20 20 20 20 20 20 20 21 21 21 22 22 22 21 20 21 21 21 21 21 21 21 22 22 22 22 23
17 18 18 19 19 20 20 21 21 21 21 21 21 20 21 21 22 22 22 22 23 23 22 22 22 21 21 21 21 21 21 21 22 22 23 23 24 24
19 19 19 20 21 21 21 22 22 22 22 23 22 21 21 22 23 24 23 23 24 24 23 23 23 22 22 22 22 23 23 23 23 24 24 24 25 26
20 20 20 21 22 21 22 22 23 23 23 24 23 23 23 24 25 25 25 24 24 24 24 23 23 23 23 23 23 24 24 24 24 24 25 26 26 26
22 22 22 22 22 23 23 24 25 24 25 25 24 24 24 25 26 26 26 26 26 26 25 25 24 24 24 24 25 24 25 25 25 26 27 27 27 27
23 23 23 23 24 24 25 26 26 26 27 26 25 25 26 27 27 27 27 28 27 26 26 26 26 25 25 26 26 27 27 28 28 28 28 29 28 28
26 26 26 25 26 26 27 27 27 27 27 26 25 26 27 27 27 28 28 28 27 27 27 27 27 27 27 26 27 28 28 28 28 28 28 28 28 28
27 28 27 27 27 27 27 27 28 27 27 27 27 28 28 28 28 29 30 29 28 28 28 28 28 28 28 27 27 28 28 28 28 28 28 28 28 28
29 29 29 29 28 29 28 28 28 27 27 28 29 29 29 29 30 30 30 30 29 29 29 29 29 29 29 29 29 28 28 29 29 28 28 28 28 28
31 31 30 29 29 29 28 28 28 28 28 28 29 30 30 30 30 30 31 30 30 30 30 30 30 30 29 29 29 29 29 29 29 29 29 28 28 28
33 32 31 30 30 29 28 29 29 29 29 30 30 30 31 31 32 32 31 31 30 30 30 30 31 31 30 28 28 28 28 28 28 29 29 29 29 29
33 31 30 30 30 28 29 29 29 30 30 30 31 32 32 32 33 32 32 31 30 30 30 30 30 29 29 29 29 29 29 29 30 29 29 29 29 29
34 32 32 31 30 30 30 30 29 30 31 31 32 33 33 33 33 32 31 31 30 29 29 30 29 29 29 29 29 29 29 30 30 30 29 29 29 29
34 33 33 32 32 31 31 30 31 31 31 31 32 32 32 32 31 31 31 31 30 30 29 30 30 30 30 30 29 29 30 30 30 30 29 29 29 29
35 34 34 34 33 33 32 31 32 32 32 32 32 32 31 31 31 31 32 31 30 30 30 30 31 30 30 29 28 28 30 30 30 30 30 30 30 30
36 36 35 34 33 33 33 33 33 33 33 33 32 31 32 32 32 31 31 31 31 31 31 31 31 30 29 29 28 29 29 30 30 30 30 30 30 30
35 35 34 33 34 34 34 34 35 34 34 33 32 32 31 30 30 30 31 31 31 31 31 31 31 30 30 29 29 29 29 29 29 30 30 30 30 29
35 35 33 32 33 33 33 35 35 34 33 33 32 32 31 31 31 31 31 32 32 32 31 31 30 29 29 29 29 29 30 31 30 30 29 29 29 29
Wind_Direction
326 327 328 329 331 331 331 330 329 328 325 321 319 318 317 316 315 317 315 311 311 310 308 307 306 305 301 297 296 295 293 291 288 284 281 281 280 279
324 324 325 327 328 329 330 329 328 327 326 325 323 320 319 316 316 315 314 313 312 312 311 310 309 308 307 305 301 300 297 294 291 288 284 284 284 283
320 319 321 323 325 326 326 326 327 328 326 325 326 323 321 320 317 318 317 317 316 314 312 311 311 309 307 306 304 300 299 296 292 288 286 284 286 285
317 317 317 318 320 321 321 322 322 323 323 322 322 322 319 320 319 317 317 317 317 316 314 312 309 307 306 304 304 303 301 300 296 293 289 287 288 288
313 313 314 314 316 318 319 319 319 320 318 318 318 319 318 317 317 318 318 317 315 314 313 312 309 307 306 305 305 305 303 302 299 296 294 293 292 291
312 310 312 313 314 315 315 315 316 318 318 317 316 317 317 317 317 317 317 317 317 315 314 312 309 307 307 307 305 305 304 303 300 298 297 296 295 293
307 307 308 309 311 312 313 315 315 316 316 317 316 315 315 316 316 316 315 316 316 315 315 313 311 309 308 307 305 304 304 302 301 300 299 297 296 295
306 306 306 307 309 311 312 313 314 314 314 315 316 316 315 315 314 314 313 313 315 315 314 312 310 308 308 307 306 304 303 300 300 300 299 298 297 296
306 306 306 308 309 311 313 314 314 314 314 313 314 316 315 314 314 313 312 311 312 312 311 311 310 308 307 306 306 304 302 302 301 300 300 299 298 298
303 305 306 307 308 308 309 312 313 312 313 313 314 314 314 313 312 312 312 311 310 310 309 309 309 308 307 306 305 304 303 302 301 300 299 299 298 297
299 302 303 303 303 304 304 307 309 309 310 311 312 312 311 311 311 312 311 310 309 308 307 307 307 307 306 305 304 304 303 302 300 299 298 298 298 297
297 299 300 299 299 301 302 305 307 307 307 308 310 311 310 311 311 312 312 309 308 307 306 306 305 306 306 305 304 303 303 303 302 301 300 299 298 298
296 297 297 297 297 300 303 303 305 306 306 307 308 309 311 311 311 310 311 310 308 307 307 306 305 304 305 304 304 303 303 303 303 301 300 299 298 298
295 296 295 294 296 298 301 301 303 305 304 305 307 309 309 311 310 309 308 307 306 306 306 306 305 304 304 304 304 304 304 304 303 301 301 301 300 299
295 295 294 294 296 297 299 300 301 303 303 305 307 308 308 308 308 307 306 305 304 304 304 305 305 304 304 304 304 304 304 304 304 303 302 301 300 299
293 292 291 292 294 296 297 299 300 302 303 304 305 306 306 305 306 305 305 306 304 303 303 303 303 303 302 302 302 303 303 303 303 303 302 302 301 299
291 291 291 293 295 295 296 298 299 300 301 302 303 304 304 304 304 303 303 304 305 304 303 303 303 302 301 300 299 301 302 303 303 303 302 302 301 300
290 291 293 293 293 294 296 296 297 298 299 300 301 303 303 303 303 302 303 304 305 304 303 303 302 301 299 300 300 301 303 303 304 304 302 302 302 302
290 292 292 292 291 291 293 294 295 297 298 299 300 301 302 302 302 302 302 303 303 303 303 302 301 300 300 300 300 300 301 302 304 304 303 302 302 301
289 289 289 289 288 289 291 292 294 296 298 298 299 300 301 301 301 301 301 302 302 303 301 301 300 299 300 300 301 302 302 303 303 304 304 304 304 303
287 288 288 286 286 288 290 291 293 294 295 297 298 298 299 300 300 301 301 301 302 303 301 300 300 299 299 299 300 301 302 303 304 304 304 305 305 305
286 287 288 285 286 288 289 291 292 292 293 294 296 297 299 300 301 301 301 302 302 302 301 300 299 298 298 299 300 301 302 303 303 303 304 305 305 305
286 286 286 286 287 288 289 291 291 291 292 292 294 296 298 297 298 299 300 301 301 300 301 302 301 299 298 299 300 301 301 303 304 304 304 304 305 306
Height
5882 5880 5879 5878 5877 5875 5874 5872 5871 5868 5866 5864 5862 5860 5858 5857 5855 5853 5850 5848 5846 5844 5841 5839 5837 5835 5833 5831 5829 5828 5826 5824 5823 5822 5821 5820 5820 5820
5880 5879 5877 5876 5875 5873 5871 5870 5868 5866 5863 5861 5859 5857 5855 5853 5851 5849 5847 5844 5842 5840 5838 5835 5833 5830 5828 5826 5824 5822 5820 5819 5817 5816 5815 5814 5814 5813
5878 5876 5875 5874 5872 5871 5869 5867 5865 5863 5861 5858 5856 5854 5852 5850 5848 5846 5844 5841 5838 5836 5833 5831 5828 5826 5824 5821 5819 5817 5815 5813 5811 5810 5809 5808 5807 5806
5875 5874 5873 5871 5870 5868 5866 5864 5862 5860 5858 5855 5853 5851 5848 5846 5844 5842 5840 5837 5834 5832 5829 5826 5824 5821 5819 5817 5814 5812 5810 5808 5806 5804 5803 5802 5801 5800
5872 5871 5870 5868 5867 5865 5863 5861 5858 5856 5854 5852 5850 5847 5845 5843 5840 5838 5835 5833 5830 5827 5824 5822 5819 5816 5814 5811 5809 5807 5804 5802 5801 5799 5797 5795 5794 5793
5869 5868 5867 5865 5863 5861 5859 5857 5855 5852 5850 5848 5846 5843 5841 5838 5836 5834 5831 5828 5825 5823 5820 5817 5814 5811 5809 5806 5804 5801 5799 5797 5795 5793 5791 5789 5787 5786
5866 5864 5863 5861 5859 5857 5855 5853 5851 5848 5846 5844 5841 5839 5837 5834 5832 5829 5826 5823 5820 5818 5815 5812 5809 5806 5803 5801 5798 5796 5793 5791 5789 5787 5785 5783 5781 5779
5862 5861 5859 5857 5855 5853 5851 5849 5847 5844 5842 5839 5837 5834 5832 5829 5827 5824 5821 5818 5815 5813 5810 5807 5804 5801 5798 5795 5793 5790 5788 5785 5783 5781 5778 5776 5774 5771
5858 5856 5855 5853 5851 5849 5847 5845 5842 5839 5837 5834 5832 5829 5827 5824 5822 5819 5816 5813 5810 5807 5804 5801 5798 5796 5793 5789 5787 5784 5781 5779 5776 5774 5772 5769 5766 5764
5854 5852 5850 5849 5846 5844 5842 5840 5837 5835 5832 5829 5827 5824 5822 5819 5816 5813 5810 5807 5804 5801 5798 5796 5792 5790 5787 5784 5781 5778 5775 5772 5770 5767 5764 5762 5759 5757
5848 5846 5845 5843 5841 5838 5836 5834 5832 5829 5827 5824 5821 5819 5816 5813 5810 5807 5804 5801 5798 5795 5792 5789 5786 5783 5780 5777 5774 5771 5768 5765 5762 5759 5757 5754 5751 5749
5842 5840 5838 5836 5835 5832 5830 5828 5825 5823 5820 5818 5815 5813 5810 5806 5803 5800 5797 5794 5791 5788 5784 5781 5779 5776 5773 5770 5767 5764 5761 5757 5754 5751 5748 5745 5743 5740
5835 5833 5832 5829 5827 5825 5823 5821 5819 5816 5814 5811 5809 5806 5803 5800 5797 5793 5790 5787 5784 5781 5778 5774 5771 5768 5765 5763 5760 5756 5753 5750 5747 5743 5740 5737 5734 5732
5828 5826 5824 5822 5820 5818 5816 5814 5812 5809 5807 5804 5802 5799 5796 5793 5790 5786 5783 5779 5776 5773 5770 5767 5764 5760 5757 5754 5752 5748 5745 5741 5738 5735 5732 5729 5726 5723
5820 5818 5816 5814 5812 5811 5809 5806 5804 5802 5800 5797 5794 5792 5789 5786 5782 5779 5775 5772 5768 5765 5762 5759 5756 5752 5749 5746 5743 5740 5737 5734 5730 5727 5724 5721 5718 5715
5812 5809 5807 5806 5804 5803 5801 5799 5797 5794 5792 5790 5787 5784 5781 5778 5774 5771 5768 5764 5760 5757 5754 5750 5747 5744 5741 5738 5735 5732 5729 5726 5723 5719 5716 5713 5710 5707
5802 5801 5799 5798 5797 5795 5794 5792 5789 5787 5784 5782 5779 5776 5773 5769 5766 5763 5759 5756 5752 5749 5745 5742 5739 5736 5732 5730 5727 5724 5721 5718 5714 5711 5709 5706 5702 5699
5794 5793 5791 5790 5788 5787 5785 5783 5781 5779 5776 5774 5771 5768 5764 5761 5758 5754 5751 5748 5744 5741 5737 5734 5731 5728 5725 5722 5719 5716 5713 5710 5706 5703 5700 5697 5694 5691
5785 5784 5782 5781 5779 5777 5776 5774 5772 5770 5768 5765 5762 5759 5756 5752 5749 5746 5743 5739 5736 5733 5729 5726 5723 5719 5717 5714 5711 5707 5705 5702 5698 5695 5692 5689 5686 5683
5775 5774 5773 5772 5770 5768 5767 5765 5763 5760 5758 5755 5753 5749 5747 5744 5740 5737 5734 5731 5728 5724 5721 5718 5714 5711 5709 5706 5703 5700 5696 5693 5690 5687 5684 5681 5677 5674
5765 5764 5763 5762 5760 5759 5757 5755 5753 5751 5749 5746 5743 5740 5737 5735 5731 5728 5725 5722 5719 5716 5712 5709 5706 5703 5700 5697 5695 5692 5689 5685 5681 5678 5675 5672 5669 5666
5755 5754 5753 5752 5750 5749 5747 5745 5743 5741 5739 5736 5734 5731 5728 5726 5723 5719 5716 5713 5710 5707 5704 5701 5698 5695 5692 5689 5686 5683 5680 5677 5673 5670 5667 5664 5660 5657
5744 5743 5742 5741 5740 5738 5737 5735 5733 5731 5729 5726 5724 5722 5719 5717 5714 5711 5707 5704 5701 5698 5695 5692 5689 5686 5683 5680 5678 5675 5672 5668 5665 5662 5659 5655 5652 5649